This demonstration page uses our WeatherBlox Daily Observations layout. Learn more.

Left ArrowRight Arrow

38.83388, -104.82136

Hourly Observations for May 8, 2022

Temp ( °F °C ) Dew Point ( °F °C ) Humidity (%) Winds ( mph kmh ) Pressure ( in mb ) Visibility ( mi km ) Precip ( " mm )
12:20 am 00:20 Cloudy 55 13 34 1 44 44 NW 12 19 29.29 992 10 16 0.00 0.00
12:58 am 00:58 Mostly Cloudy 53 11.4 34 1.3 50 50 N 13 20 29.29 992 10 16 0.00 0.00
2:58 am 02:58 Cloudy 50 10.1 34 1.2 54 54 NW 6 9 29.29 992 10 16 0.00 0.00
3:58 am 03:58 Mostly Cloudy 49 9.4 34 1.3 57 57 SSE 8 13 29.31 993 10 16 0.00 0.00
4:58 am 04:58 Clear 46 7.8 33 0.3 59 59 S 10 17 29.31 993 10 16 0.00 0.00
6:58 am 06:58 Sunny 46 7.9 33 0.4 59 59 SSE 16 26 29.35 994 10 16 0.00 0.00
7:58 am 07:58 Sunny 49 9.6 34 1 55 55 SSE 21 33 29.34 994 10 16 0.00 0.00
8:58 am 08:58 Sunny 52 10.9 33 0.6 49 49 SSE 20 31 29.36 994 10 16 0.00 0.00
9:58 am 09:58 Sunny 55 12.6 33 0.3 43 43 SSE 23 37 29.41 996 10 16 0.00 0.00
10:58 am 10:58 Sunny 56 13.6 34 1.3 43 43 SSE 23 37 29.55 1001 10 16 0.00 0.00
11:58 am 11:58 Partly Cloudy 57 13.9 35 1.8 44 44 SE 26 43 29.37 995 10 16 0.00 0.00
12:58 pm 12:58 Partly Cloudy 59 15 36 2.2 42 42 SSE 21 33 29.37 995 10 16 0.00 0.00
1:33 pm 13:33 Partly Cloudy 61 16 36 2 39 39 S 21 33 29.36 994 10 16 0.00 0.00
1:58 pm 13:58 Mostly Sunny 62 16.5 37 2.5 39 39 SSE 20 31 29.45 997 10 16 0.00 0.00
2:58 pm 14:58 Sunny 63 17 36 2.2 37 37 SE 21 33 29.36 994 10 16 0.00 0.00
3:58 pm 15:58 Mostly Sunny 65 18.1 36 2.4 35 35 SE 16 26 29.34 994 10 16 0.00 0.00
4:58 pm 16:58 Sunny 66 18.8 37 3 35 35 SSE 9 15 29.33 993 10 16 0.00 0.00
5:58 pm 17:58 Sunny 66 19 35 1.5 31 31 S 6 9 29.30 992 10 16 0.00 0.00
6:33 pm 18:33 Sunny 70 21 19 -7 15 15 S 29 46 29.23 990 10 16 0.00 0.00
6:58 pm 18:58 Sunny 71 21.8 12 -11.2 10 10 S 16 26 29.23 990 10 16 0.00 0.00
7:58 pm 19:58 Mostly Cloudy 70 21.1 13 -10.5 11 11 SSE 21 33 29.23 990 10 16 0.00 0.00
8:00 pm 20:00 Mostly Cloudy 70 21 12 -11 11 11 S 20 31 29.23 990 10 16 0.00 0.00
8:15 pm 20:15 Cloudy 70 21 14 -10 12 12 SE 13 20 29.23 990 10 16 0.00 0.00
8:28 pm 20:28 Cloudy 70 21 14 -10 12 12 S 18 30 29.21 989 10 16 0.00 0.00
8:58 pm 20:58 Cloudy 68 20.1 15 -9.2 13 13 S 31 50 29.19 989 7 11 0.00 0.00
9:05 pm 21:05 Cloudy 68 20 16 -9 13 13 SSE 18 30 29.18 988 7 11 0.00 0.00
9:58 pm 21:58 Cloudy with Haze 67 19.6 13 -10.6 12 12 S 28 44 29.17 988 6 10 0.00 0.00
10:58 pm 22:58 Cloudy 66 19.1 10 -12.1 11 11 SSE 26 43 29.15 987 7 11 0.00 0.00
11:58 pm 23:58 Cloudy with Haze 64 18 11 -11.9 12 12 SSE 24 39 29.13 987 6 10 0.00 0.00

Powered by AerisWeather